Flag for U.S.A. Weather past 2 weeks in Billings, Montana, U.S.A.

Now
48 °F

Partly cloudy.


Feels Like: 43 °F
Forecast: 46 / 60 °F
Wind: 13 mph from Northwest

Location: Billings Logan International Airport

Current Time: Oct 1, 2014 at 8:36:47 AM

Latest Report: Oct 1, 2014 at 7:53 AM


Visibility: 10 mi

Pressure: 29.92 "Hg

Humidity: 59%

Dew point: 34 °F

Location of BillingsLocation

Historic Weather in Billings — Graph

°F

Billings temperature yesterday

Maximum temperature yesterday: 64 °F (at 3:53 PM)
Minimum temperature yesterday: 45 °F (at 5:53 AM)
Average temperature yesterday: 55 °F

Past Weeks' High & Low Weather Summary

 TemperatureHumidityPressure
High91 °F (Sep 25, 3:53 PM)97% (Sep 28, 8:53 PM)30.29 "Hg (Sep 28, 8:53 PM)
Low45 °F (Sep 30, 5:53 AM)17% (Sep 16, 2:53 PM)29.63 "Hg (Sep 30, 3:53 PM)
Average64 °F54%29.92 "Hg
* Reported Sep 16 6:53 AM — Oct 1 6:53 AM, Billings, Weather by CustomWeather, © 2014

Note: Actual official high and low records may vary slightly from our data, if they occured in-between our weather recording intervals... More about our weather records

Advertising

Billings weather history for previous 24 hours

 ConditionsComfort  
Time TempWeatherWind HumidityBarometerVisibility
6:53 AM
Oct 1
46 °FPassing clouds.7 mph68%29.90 "Hg10 mi
5:53 AM48 °FPassing clouds.15 mph63%29.87 "Hg10 mi
4:53 AM46 °FPassing clouds.7 mph71%29.85 "Hg10 mi
3:53 AM49 °FPassing clouds.9 mph66%29.83 "Hg10 mi
2:53 AM50 °FPassing clouds.10 mph66%29.82 "Hg10 mi
1:53 AM51 °FPassing clouds.18 mph66%29.80 "Hg10 mi
12:53 AM52 °FPassing clouds.22 mph64%29.78 "Hg10 mi
11:53 PM
Sep 30
53 °FMostly cloudy.21 mph61%29.77 "Hg10 mi
10:53 PM53 °FPassing clouds.22 mph64%29.75 "Hg10 mi
9:53 PM54 °FPassing clouds.16 mph62%29.75 "Hg10 mi
8:53 PM56 °FOvercast.16 mph53%29.72 "Hg10 mi
7:53 PM58 °FBroken clouds.14 mph47%29.71 "Hg10 mi
6:53 PM59 °FBroken clouds.15 mph46%29.69 "Hg10 mi
5:53 PM61 °FMore clouds than sun.14 mph48%29.67 "Hg10 mi
4:53 PM63 °FPartly sunny.18 mph43%29.65 "Hg10 mi
3:53 PM64 °FLight rain. Mostly cloudy.24 mph41%29.63 "Hg10 mi
2:53 PM63 °FCloudy.16 mph47%29.65 "Hg10 mi
1:53 PM61 °FMore clouds than sun.8 mph52%29.66 "Hg10 mi
12:53 PM61 °FOvercast.18 mph50%29.66 "Hg10 mi
11:53 AM60 °FOvercast.13 mph52%29.67 "Hg10 mi
10:53 AM61 °FPartly sunny.20 mph50%29.66 "Hg10 mi
9:53 AM55 °FBroken clouds.8 mph69%29.68 "Hg10 mi
8:53 AM54 °FPartly sunny.14 mph72%29.68 "Hg10 mi
Weather by CustomWeather, © 2014

See weather overviewHow to use our weather pages